Weather History for Durant, OK

Change the Weather History Date:

Wednesday, December 11, 2013

  Actual Average (KADM) Record (KADM)
Temperature  
Mean Temperature 32 °F -  
Max Temperature 42 °F 53 °F 78 °F (1996)
Min Temperature 23 °F 34 °F 14 °F (2012)
Degree Days  
Heating Degree Days 32    
Moisture  
Dew Point 26 °F    
Average Humidity 81    
Maximum Humidity 100    
Minimum Humidity 57    
Precipitation  
Precipitation 0.00 in - - ()
Sea Level Pressure  
Sea Level Pressure 30.46 in    
Wind  
Wind Speed 5 mph (NE)    
Max Wind Speed 12 mph    
Max Gust Speed -    
Visibility 8 miles    
Events      
Averages and records for this station are not official NWS values.
T = Trace of Precipitation, MM = Missing Value Source: NWS Daily Summary

Daily Weather History Graph

Daily Weather History Graph

Search for Another Location

Airport:

Trip Planner

Search our weather history database for the weather conditions in past years. The results will help you decide how hot, cold, wet, or windy it might be!

Date:

Astronomy

Dec. 11, 2013 Rise Set
Actual Time 7:20 AM CST 5:17 PM CST
Civil Twilight 6:53 AM CST 5:44 PM CST
Nautical Twilight 6:22 AM CST 6:15 PM CST
Astronomical Twilight 5:51 AM CST 6:46 PM CST
Moon 1:40 PM CST (12/11) 1:55 AM CST (12/11)
Length of Visible Light 10h 51m
Length of Day
9h 56m
Waxing Gibbous, 72% of the Moon is Illuminated
Dec 11
Waxing Gibbous
Dec 17
Full
Dec 25
Last Quarter
Jan 1
New
Jan 7
First Quarter

Hourly Weather History & Observations

Time (CST) Temp. Windchill Dew Point Humidity Pressure Visibility Wind Dir Wind Speed Gust Speed Precip Events Conditions
12:15 AM 23.0 °F 17.0 °F 23.0 °F 100% 30.34 in 5.0 mi SSE 4.6 mph - N/A   Clear
12:35 AM 23.0 °F 17.0 °F 21.2 °F 93% 30.33 in 5.0 mi SSE 4.6 mph - N/A   Clear
12:55 AM 23.0 °F 17.0 °F 21.2 °F 93% 30.33 in 7.0 mi SE 4.6 mph - N/A   Clear
1:15 AM 23.0 °F 17.0 °F 21.2 °F 93% 30.33 in 7.0 mi South 4.6 mph - N/A   Clear
1:35 AM 23.0 °F 17.0 °F 21.2 °F 93% 30.32 in 7.0 mi SSE 4.6 mph - N/A   Clear
1:55 AM 23.0 °F 14.7 °F 21.2 °F 93% 30.32 in 7.0 mi SE 6.9 mph - N/A   Clear
2:15 AM 23.0 °F 13.9 °F 21.2 °F 93% 30.32 in 7.0 mi SSE 8.1 mph - N/A   Clear
2:35 AM 24.8 °F 17.9 °F 21.2 °F 86% 30.32 in 7.0 mi South 5.8 mph - N/A   Clear
2:55 AM 23.0 °F - 21.2 °F 93% 30.33 in 7.0 mi Calm Calm - N/A   Clear
3:15 AM 23.0 °F 18.4 °F 21.2 °F 93% 30.34 in 5.0 mi ESE 3.5 mph - N/A   Clear
3:35 AM 23.0 °F 18.4 °F 21.2 °F 93% 30.34 in 5.0 mi ESE 3.5 mph - N/A   Clear
3:55 AM 23.0 °F - 19.4 °F 86% 30.34 in 5.0 mi Calm Calm - N/A   Clear
4:15 AM 23.0 °F 15.8 °F 19.4 °F 86% 30.33 in 4.0 mi SE 5.8 mph - N/A   Clear
4:35 AM 23.0 °F - 19.4 °F 86% 30.34 in 5.0 mi Calm Calm - N/A   Clear
4:55 AM 23.0 °F 17.0 °F 21.2 °F 93% 30.35 in 5.0 mi North 4.6 mph - N/A   Clear
5:15 AM 23.0 °F - 21.2 °F 93% 30.36 in 5.0 mi Calm Calm - N/A   Clear
5:35 AM 23.0 °F 18.4 °F 21.2 °F 93% 30.36 in 5.0 mi ESE 3.5 mph - N/A   Clear
5:55 AM 23.0 °F 18.4 °F 21.2 °F 93% 30.37 in 5.0 mi SE 3.5 mph - N/A   Clear
6:15 AM 23.0 °F - 19.4 °F 86% 30.37 in 5.0 mi Calm Calm - N/A   Clear
6:35 AM 23.0 °F 17.0 °F 21.2 °F 93% 30.37 in 5.0 mi SSE 4.6 mph - N/A   Clear
6:55 AM 23.0 °F 15.8 °F 21.2 °F 93% 30.38 in 5.0 mi SSE 5.8 mph - N/A   Clear
7:15 AM 24.8 °F - 21.2 °F 86% 30.39 in 5.0 mi Calm Calm - N/A   Clear
7:35 AM 24.8 °F - 21.2 °F 86% 30.40 in 5.0 mi Calm Calm - N/A   Clear
7:55 AM 24.8 °F - 21.2 °F 86% 30.41 in 4.0 mi Calm Calm - N/A   Clear
8:15 AM 24.8 °F 19.1 °F 23.0 °F 93% 30.44 in 4.0 mi North 4.6 mph - N/A   Clear
8:35 AM 26.6 °F 22.6 °F 24.8 °F 93% 30.45 in 4.0 mi NNE 3.5 mph - N/A   Clear
8:55 AM 28.4 °F 22.2 °F 26.6 °F 93% 30.45 in 4.0 mi North 5.8 mph - N/A   Clear
9:15 AM 30.2 °F 26.7 °F 28.4 °F 93% 30.46 in 4.0 mi NE 3.5 mph - N/A   Clear
9:35 AM 30.2 °F 25.4 °F 28.4 °F 93% 30.47 in 5.0 mi NE 4.6 mph - N/A   Clear
9:55 AM 32.0 °F 28.7 °F 30.2 °F 93% 30.48 in 5.0 mi NE 3.5 mph - N/A   Clear
10:15 AM 32.0 °F 27.5 °F 32.0 °F 100% 30.49 in 7.0 mi NE 4.6 mph - N/A   Clear
10:35 AM 33.8 °F 28.6 °F 32.0 °F 93% 30.50 in 7.0 mi North 5.8 mph - N/A   Clear
10:55 AM 33.8 °F 29.6 °F 32.0 °F 93% 30.49 in 10.0 mi NE 4.6 mph - N/A   Clear
11:15 AM 35.6 °F 32.8 °F 32.0 °F 87% 30.49 in 10.0 mi NE 3.5 mph - N/A   Clear
11:35 AM 37.4 °F 33.8 °F 32.0 °F 81% 30.48 in 10.0 mi East 4.6 mph - N/A   Clear
11:55 AM 37.4 °F 32.8 °F 32.0 °F 81% 30.48 in 10.0 mi NE 5.8 mph - N/A   Clear
12:15 PM 39.2 °F 35.9 °F 32.0 °F 75% 30.47 in 10.0 mi NE 4.6 mph - N/A   Clear
12:35 PM 41.0 °F 38.0 °F 33.8 °F 76% 30.47 in 10.0 mi North 4.6 mph - N/A   Clear
12:55 PM 42.8 °F 39.3 °F 30.2 °F 61% 30.46 in 10.0 mi North 5.8 mph - N/A   Clear
1:15 PM 41.0 °F 36.4 °F 30.2 °F 65% 30.47 in 10.0 mi NNE 6.9 mph - N/A   Clear
1:35 PM 41.0 °F 35.8 °F 30.2 °F 65% 30.47 in 10.0 mi NNE 8.1 mph - N/A   Clear
1:55 PM 42.8 °F 38.0 °F 30.2 °F 61% 30.46 in 10.0 mi NE 8.1 mph - N/A   Clear
2:15 PM 42.8 °F 38.0 °F 30.2 °F 61% 30.47 in 10.0 mi NNE 8.1 mph - N/A   Clear
2:35 PM 42.8 °F 37.0 °F 30.2 °F 61% 30.47 in 10.0 mi North 10.4 mph - N/A   Clear
2:55 PM 42.8 °F 38.0 °F 30.2 °F 61% 30.47 in 10.0 mi NNE 8.1 mph - N/A   Clear
3:15 PM 42.8 °F 38.0 °F 30.2 °F 61% 30.47 in 10.0 mi NNE 8.1 mph - N/A   Clear
3:35 PM 42.8 °F 36.6 °F 30.2 °F 61% 30.47 in 10.0 mi NNE 11.5 mph - N/A   Clear
3:55 PM 42.8 °F 38.0 °F 28.4 °F 57% 30.48 in 10.0 mi NNE 8.1 mph - N/A   Clear
4:15 PM 42.8 °F 37.5 °F 30.2 °F 61% 30.49 in 10.0 mi NNE 9.2 mph - N/A   Clear
4:35 PM 41.0 °F 35.8 °F 28.4 °F 61% 30.50 in 10.0 mi NW 8.1 mph - N/A   Clear
4:55 PM 41.0 °F 35.8 °F 28.4 °F 61% 30.50 in 10.0 mi NNW 8.1 mph - N/A   Clear
5:15 PM 37.4 °F 30.8 °F 28.4 °F 70% 30.51 in 10.0 mi North 9.2 mph - N/A   Clear
5:35 PM 37.4 °F 30.8 °F 28.4 °F 70% 30.52 in 10.0 mi North 9.2 mph - N/A   Clear
5:55 PM 37.4 °F 30.8 °F 28.4 °F 70% 30.53 in 10.0 mi North 9.2 mph - N/A   Clear
6:15 PM 35.6 °F 28.6 °F 28.4 °F 75% 30.53 in 10.0 mi NNE 9.2 mph - N/A   Clear
6:35 PM 35.6 °F 29.2 °F 28.4 °F 75% 30.54 in 10.0 mi NNE 8.1 mph - N/A   Clear
6:55 PM 33.8 °F 27.7 °F 28.4 °F 81% 30.55 in 10.0 mi NNE 6.9 mph - N/A   Clear
7:15 PM 33.8 °F 27.0 °F 26.6 °F 75% 30.55 in 10.0 mi NNE 8.1 mph - N/A   Clear
7:35 PM 33.8 °F 27.0 °F 26.6 °F 75% 30.55 in 10.0 mi NNE 8.1 mph - N/A   Clear
7:55 PM 33.8 °F 26.4 °F 26.6 °F 75% 30.57 in 10.0 mi NNE 9.2 mph - N/A   Clear
8:15 PM 33.8 °F 25.8 °F 26.6 °F 75% 30.57 in 10.0 mi NNE 10.4 mph - N/A   Clear
8:35 PM 33.8 °F 25.3 °F 26.6 °F 75% 30.57 in 10.0 mi NNE 11.5 mph - N/A   Clear
8:55 PM 32.0 °F 24.2 °F 26.6 °F 80% 30.58 in 10.0 mi NNE 9.2 mph - N/A   Clear
9:15 PM 32.0 °F 24.2 °F 26.6 °F 80% 30.58 in 10.0 mi NNE 9.2 mph - N/A   Clear
9:35 PM 32.0 °F 24.2 °F 26.6 °F 80% 30.59 in 10.0 mi North 9.2 mph - N/A   Clear
9:55 PM 32.0 °F 23.6 °F 26.6 °F 80% 30.60 in 10.0 mi NNE 10.4 mph - N/A   Clear
10:15 PM 32.0 °F 24.8 °F 26.6 °F 80% 30.60 in 10.0 mi NNE 8.1 mph - N/A   Clear
10:35 PM 32.0 °F 25.6 °F 26.6 °F 80% 30.60 in 10.0 mi North 6.9 mph - N/A   Clear
10:55 PM 32.0 °F 25.6 °F 24.8 °F 75% 30.59 in 10.0 mi North 6.9 mph - N/A   Clear
11:15 PM 32.0 °F 25.6 °F 24.8 °F 75% 30.60 in 10.0 mi North 6.9 mph - N/A   Clear
11:35 PM 30.2 °F 23.4 °F 24.8 °F 80% 30.59 in 10.0 mi North 6.9 mph - N/A   Clear
11:55 PM 30.2 °F 24.3 °F 23.0 °F 75% 30.59 in 10.0 mi NNE 5.8 mph - N/A   Clear